This is the latest recevied weather packets stored in our database for station/object KC8YYF. If no packets are shown the sender has not sent any weather packets the latest 1 day(s).
| Time | Temp. | Humidity | Pressure | Rain* | Wind** | Luminosity | Snow |
|---|---|---|---|---|---|---|---|
| 1778094702 | 14.44° C | 60% | 1012.6 hPa | 0 mm | - | 196 W/m² | - |
| 1778093489 | 13.89° C | 55% | 1012.6 hPa | 0 mm | - | 172 W/m² | - |
| 1778092884 | 13.33° C | 54% | 1012.2 hPa | 0 mm | - | 179 W/m² | - |
| 1778091671 | 12.78° C | 56% | 1012.7 hPa | 0 mm | - | 125 W/m² | - |
| 1778091369 | 12.78° C | 56% | 1012.4 hPa | 0 mm | - | 103 W/m² | - |
| 1778090459 | 13.33° C | 60% | 1012.5 hPa | 0 mm | - | 109 W/m² | - |
| 1778090155 | 13.89° C | 58% | 1012.4 hPa | 0 mm | - | 141 W/m² | - |
| 1778089246 | 13.89° C | 60% | 1012.6 hPa | 0 mm | - | 272 W/m² | - |
| 1778088034 | 12.78° C | 61% | 1012.3 hPa | 0 mm | - | 254 W/m² | - |
| 1778087429 | 13.33° C | 69% | 1012.8 hPa | 0 mm | - | 158 W/m² | - |
| 1778087126 | 12.78° C | 65% | 1012.4 hPa | 0 mm | - | 203 W/m² | - |
| 1778085909 | 11.67° C | 72% | 1012.3 hPa | 0 mm | - | 214 W/m² | - |
| 1778084695 | 11.67° C | 75% | 1012.5 hPa | 0 mm | - | 247 W/m² | - |
| 1778083484 | 11.11° C | 77% | 1012.5 hPa | 0 mm | - | 149 W/m² | - |
| 1778082879 | 11.11° C | 81% | 1012.4 hPa | 0 mm | - | 199 W/m² | - |
| 1778081771 | 10° C | 84% | 1012.2 hPa | 0 mm | - | 125 W/m² | - |
| 1778080258 | 9.44° C | 88% | 1011.5 hPa | 0 mm | - | 106 W/m² | - |
| 1778079348 | 8.89° C | 91% | 1011.7 hPa | 0 mm | - | 71 W/m² | - |
| 1778077231 | 8.89° C | 97% | 1011.1 hPa | 0 mm | - | 54 W/m² | - |
| 1778076021 | 8.89° C | 99% | 1010.8 hPa | 0 mm | - | 38 W/m² | - |
| 1778075414 | 8.89° C | 99% | 1010.9 hPa | 0 mm | - | 42 W/m² | - |
| 1778075110 | 8.89° C | 99% | 1010.6 hPa | 0 mm | - | 83 W/m² | - |
| 1778074504 | 7.78° C | 99% | 1010.5 hPa | 0 mm | - | 50 W/m² | - |
| 1778073595 | 8.89° C | 99% | 1010.5 hPa | 0 mm | - | 43 W/m² | - |
| 1778072685 | 8.33° C | 99% | 1010.3 hPa | 0 mm | - | 66 W/m² | - |
* Rain latest hour (hover to see other rain measurements)
** Current wind speed in m/s (hover to see current wind gust speed)